Hourly Weather Dzierzkowice

Today, 12 May, Wednesday

Time Temperature Precipitation Wind Pressure Humidity
00:00 +18°C° 0 mm 4 mps 741 mmHg 76%
01:00 +18°C° 0 mm 4 mps 741 mmHg 77%
02:00 +17°C° 0 mm 4 mps 741 mmHg 81%
03:00 +16°C° 0 mm 3 mps 741 mmHg 85%
04:00 +16°C° 0 mm 3 mps 741 mmHg 89%
05:00 +16°C° 0 mm 3 mps 742 mmHg 89%
06:00 +17°C° 0 mm 3 mps 742 mmHg 88%
07:00 +18°C° 0 mm 3 mps 742 mmHg 88%
08:00 +18°C° 0 mm 3 mps 743 mmHg 87%
09:00 +18°C° 0 mm 3 mps 743 mmHg 86%
10:00 +18°C° 0 mm 3 mps 743 mmHg 85%
11:00 +18°C° 0 mm 3 mps 743 mmHg 83%
12:00 +19°C° 0 mm 3 mps 743 mmHg 82%
13:00 +19°C° 0 mm 2 mps 743 mmHg 81%
14:00 +19°C° 0.1 mm 3 mps 742 mmHg 81%
15:00 +20°C° 0.1 mm 3 mps 742 mmHg 80%
16:00 +20°C° 0.1 mm 3 mps 741 mmHg 80%
17:00 +19°C° 1.6 mm 3 mps 741 mmHg 85%
18:00 +18°C° 1.6 mm 3 mps 741 mmHg 90%
19:00 +17°C° 1.6 mm 3 mps 740 mmHg 95%
20:00 +17°C° 3.6 mm 3 mps 740 mmHg 96%
21:00 +16°C° 3.6 mm 3 mps 740 mmHg 97%
22:00 +16°C° 3.6 mm 2 mps 740 mmHg 98%
23:00 +16°C° 0.3 mm 2 mps 740 mmHg 97%

Tomorrow, 13 May, Thursday

Time Temperature Precipitation Wind Pressure Humidity
00:00 +15°C° 0.3 mm 2 mps 740 mmHg 97%
01:00 +15°C° 0.3 mm 1 mps 739 mmHg 97%
02:00 +15°C° 0.1 mm 1 mps 739 mmHg 97%
03:00 +15°C° 0.1 mm 1 mps 739 mmHg 97%
04:00 +15°C° 0.1 mm 1 mps 738 mmHg 96%
05:00 +15°C° 0.1 mm 1 mps 738 mmHg 96%
06:00 +15°C° 0.1 mm 1 mps 738 mmHg 95%
07:00 +15°C° 0.1 mm 1 mps 738 mmHg 94%
08:00 +15°C° 0.3 mm 1 mps 738 mmHg 93%
09:00 +15°C° 0.3 mm 1 mps 738 mmHg 92%
10:00 +15°C° 0.3 mm 1 mps 738 mmHg 91%
11:00 +15°C° 0.8 mm 2 mps 738 mmHg 92%
12:00 +15°C° 0.8 mm 2 mps 738 mmHg 92%
13:00 +15°C° 0.8 mm 2 mps 737 mmHg 92%
14:00 +13°C° 0.7 mm 3 mps 738 mmHg 93%
15:00 +13°C° 0.7 mm 4 mps 738 mmHg 93%
16:00 +11°C° 0.7 mm 6 mps 738 mmHg 93%
17:00 +10°C° 0.2 mm 6 mps 738 mmHg 93%
18:00 +10°C° 0.2 mm 6 mps 738 mmHg 93%
19:00 +9°C° 0.2 mm 6 mps 738 mmHg 93%
20:00 +9°C° 0.2 mm 6 mps 739 mmHg 93%
21:00 +9°C° 0.2 mm 6 mps 739 mmHg 93%
22:00 +8°C° 0.2 mm 6 mps 739 mmHg 94%
23:00 +8°C° 0.3 mm 6 mps 739 mmHg 93%

Day after tomorrow, 14 May, Friday

Time Temperature Precipitation Wind Pressure Humidity
00:00 +8°C° 0.3 mm 5 mps 739 mmHg 93%
01:00 +8°C° 0.3 mm 5 mps 739 mmHg 93%
02:00 +8°C° 0.5 mm 5 mps 740 mmHg 93%
03:00 +8°C° 0.5 mm 5 mps 740 mmHg 93%
04:00 +8°C° 0.5 mm 5 mps 740 mmHg 93%
05:00 +8°C° 0.4 mm 5 mps 740 mmHg 91%
06:00 +8°C° 0.4 mm 5 mps 741 mmHg 90%
07:00 +8°C° 0.4 mm 5 mps 741 mmHg 89%
08:00 +10°C° 0.1 mm 5 mps 741 mmHg 82%
09:00 +11°C° 0.1 mm 6 mps 742 mmHg 76%
10:00 +13°C° 0.1 mm 6 mps 742 mmHg 70%
11:00 +13°C° 0 mm 6 mps 742 mmHg 68%
12:00 +14°C° 0 mm 6 mps 742 mmHg 67%
13:00 +15°C° 0 mm 5 mps 742 mmHg 65%
14:00 +15°C° 0.1 mm 5 mps 742 mmHg 67%
15:00 +15°C° 0.1 mm 4 mps 742 mmHg 68%
16:00 +15°C° 0.1 mm 4 mps 742 mmHg 69%
17:00 +14°C° 0.2 mm 3 mps 742 mmHg 73%
18:00 +14°C° 0.2 mm 2 mps 742 mmHg 78%
19:00 +13°C° 0.2 mm 1 mps 743 mmHg 82%
20:00 +13°C° 0 mm 1 mps 743 mmHg 84%
21:00 +12°C° 0 mm 1 mps 743 mmHg 86%
22:00 +11°C° 0 mm 1 mps 743 mmHg 88%
23:00 +10°C° 0 mm 1 mps 744 mmHg 89%

15 May, Saturday

Time Temperature Precipitation Wind Pressure Humidity
00:00 +10°C° 0 mm 1 mps 744 mmHg 90%
01:00 +9°C° 0 mm 1 mps 744 mmHg 91%
02:00 +9°C° 0 mm 1 mps 744 mmHg 91%
03:00 +8°C° 0 mm 1 mps 744 mmHg 91%
04:00 +8°C° 0 mm 1 mps 744 mmHg 91%
05:00 +10°C° 0 mm 1 mps 744 mmHg 88%
06:00 +11°C° 0 mm 1 mps 744 mmHg 84%
07:00 +13°C° 0 mm 1 mps 744 mmHg 81%
08:00 +14°C° 0.1 mm 1 mps 744 mmHg 77%
09:00 +15°C° 0.1 mm 1 mps 744 mmHg 73%
10:00 +18°C° 0.1 mm 1 mps 744 mmHg 68%
11:00 +18°C° 0.4 mm 1 mps 744 mmHg 66%
12:00 +19°C° 0.4 mm 1 mps 744 mmHg 64%
13:00 +17°C° 0.4 mm 0 mps 744 mmHg 62%
14:00 +19°C° 0.4 mm 1 mps 743 mmHg 63%
15:00 +19°C° 0.4 mm 1 mps 743 mmHg 64%
16:00 +19°C° 0.4 mm 1 mps 743 mmHg 65%
17:00 +18°C° 0.6 mm 1 mps 743 mmHg 71%
18:00 +16°C° 0.6 mm 1 mps 743 mmHg 76%
19:00 +14°C° 0.6 mm 1 mps 743 mmHg 82%
20:00 +14°C° 0.8 mm 1 mps 743 mmHg 84%
21:00 +14°C° 0.8 mm 1 mps 743 mmHg 86%
22:00 +13°C° 0.8 mm 1 mps 743 mmHg 88%
23:00 +13°C° 1.1 mm 1 mps 744 mmHg 91%

16 May, Sunday

Time Temperature Precipitation Wind Pressure Humidity
00:00 +12°C° 1.1 mm 2 mps 744 mmHg 93%
01:00 +12°C° 1.1 mm 2 mps 744 mmHg 95%
02:00 +12°C° 0.7 mm 2 mps 744 mmHg 95%
03:00 +12°C° 0.7 mm 1 mps 744 mmHg 95%
04:00 +12°C° 0.7 mm 1 mps 744 mmHg 95%
05:00 +12°C° 0.1 mm 1 mps 744 mmHg 94%
06:00 +12°C° 0.1 mm 1 mps 744 mmHg 92%
07:00 +12°C° 0.1 mm 1 mps 745 mmHg 91%
08:00 +13°C° 0.2 mm 2 mps 745 mmHg 89%
09:00 +13°C° 0.2 mm 2 mps 745 mmHg 86%
10:00 +13°C° 0.2 mm 3 mps 745 mmHg 84%
11:00 +15°C° 0.3 mm 2 mps 745 mmHg 80%
12:00 +15°C° 0.3 mm 2 mps 745 mmHg 76%
13:00 +16°C° 0.3 mm 2 mps 745 mmHg 73%
14:00 +16°C° 0.3 mm 2 mps 744 mmHg 73%
15:00 +16°C° 0.3 mm 2 mps 744 mmHg 73%
16:00 +16°C° 0.3 mm 2 mps 744 mmHg 73%
17:00 +15°C° 0.1 mm 2 mps 744 mmHg 76%
18:00 +15°C° 0.1 mm 2 mps 744 mmHg 80%
19:00 +14°C° 0.1 mm 2 mps 744 mmHg 83%
20:00 +13°C° 0 mm 2 mps 744 mmHg 84%
21:00 +12°C° 0 mm 2 mps 744 mmHg 86%
22:00 +9°C° 0 mm 2 mps 744 mmHg 88%
23:00 +9°C° 0 mm 3 mps 744 mmHg 89%

17 May, Monday

Time Temperature Precipitation Wind Pressure Humidity
00:00 +8°C° 0 mm 3 mps 744 mmHg 91%
01:00 +8°C° 0 mm 3 mps 744 mmHg 92%
02:00 +8°C° 0 mm 3 mps 744 mmHg 92%
03:00 +7°C° 0 mm 2 mps 744 mmHg 92%
04:00 +7°C° 0 mm 2 mps 744 mmHg 92%
05:00 +9°C° 0 mm 3 mps 744 mmHg 88%
06:00 +10°C° 0 mm 3 mps 744 mmHg 84%
07:00 +12°C° 0 mm 3 mps 744 mmHg 79%
08:00 +13°C° 0 mm 3 mps 744 mmHg 73%
09:00 +14°C° 0 mm 4 mps 744 mmHg 67%
10:00 +17°C° 0 mm 4 mps 744 mmHg 61%
11:00 +17°C° 0 mm 4 mps 744 mmHg 58%
12:00 +18°C° 0 mm 3 mps 744 mmHg 56%
13:00 +19°C° 0 mm 3 mps 743 mmHg 54%
14:00 +18°C° 0.3 mm 3 mps 743 mmHg 59%
15:00 +18°C° 0.3 mm 3 mps 743 mmHg 64%
16:00 +17°C° 0.3 mm 3 mps 744 mmHg 69%
17:00 +16°C° 0.3 mm 3 mps 744 mmHg 75%
18:00 +14°C° 0.3 mm 3 mps 744 mmHg 80%
19:00 +14°C° 0.3 mm 2 mps 744 mmHg 85%
20:00 +13°C° 0.1 mm 2 mps 744 mmHg 87%
21:00 +11°C° 0.1 mm 3 mps 744 mmHg 90%
22:00 +10°C° 0.1 mm 3 mps 745 mmHg 92%
23:00 +10°C° 0 mm 3 mps 745 mmHg 92%
Show more

We Need Your Consent

Meteoprog and our Service Providers may store and access personal data such as cookies, device identifiers or other similar technologies on your device and process such data to personalise content and ads, as well as provide social media features and to analyse the traffic.

  • Store and/or access information on your device

    Cookies, device identifiers or other information can be stored or accessed on your device for the purposes indicated above.

  • Personalised ads and content, ad and content measurement, audience insights, and products development

    Ads and content can be personalised based on a profile. More data can be added to better personalise ads and content. Ad and content performance can be measured. Insights about the audience who saw the ads and content can be derived. Such data can be used to develop or improve user’s experience, systems and software.

By clicking ‘I Agree’ you will allow the use of indicated cookies, device identifiers, web beacons or other similar technologies. Your settings can be changed in the browser on your device.

For certain purposes, legitimate interests may be relied on, rather than consent. You can read more about this in our Privacy and Cookie Policy.